Regional Weather Roundup
Issued by NWS Albany, NY

Home | Current Version | Previous Version | Graphics & Text | Print | Product List | Glossary Off
Versions: 1 2 3 4 5 6 7 8 9 10 11 12 13 14 15 16 17 18 19 20 21 22 23 24 25 26 27 28 29 30 31 32 33 34 35 36 37 38 39 40 41 42 43 44 45 46 47 48 49 50

000
ASUS41 KALY 212110
RWRALY

NEW YORK STATE HOURLY WEATHER ROUNDUP
NATIONAL WEATHER SERVICE ALBANY NY
400 PM EST TUE NOV 21 2017

NOTE: "FAIR" INDICATES FEW OR NO CLOUDS BELOW 12,000 FEET WITH NO
SIGNIFICANT WEATHER AND/OR NO OBSTRUCTIONS TO VISIBILITY.

NYZ032-033-038>043-046>054-057>066-NYZ062>081-082-084-212200-
EAST


CITY           SKY/WX    TMP DP  RH WIND       PRES   REMARKS
ALBANY         MOCLDY    54  25  32 S23G35    29.90R
GLENS FALLS    CLEAR     50  25  37 S7        29.87R
POUGHKEEPSIE   CLEAR     56  26  31 S6        29.98R
NEWBURGH       PTCLDY    57  28  33 S8        29.99R
MONTGOMERY     CLEAR     55  28  35 S12       29.96S
WHITE PLAINS   CLEAR     53  36  52 S7        29.99F
ISLIP          CLOUDY    53  40  61 S13G20    30.04F
NEW YORK CITY  MOCLDY    57  30  35 S14       30.02S
CENTRAL PARK   CLEAR     56  32  40 S5        30.04S
$$

NYZ005>009-017-018-044>046-055-056-212200-
CENTRAL


CITY           SKY/WX    TMP DP  RH WIND       PRES   REMARKS
FULTON         PTCLDY    54  24  31 S8        29.79R
SYRACUSE       MOCLDY    50  24  36 S8        29.80R
ROME           PTCLDY    51  25  36 S8        29.84R
ELMIRA         PTCLDY    57  27  31 SW18G25   29.83R
BINGHAMTON     PTCLDY    50  22  33 SW14G24   29.87R
MONTICELLO     CLOUDY    49  23  36 S7        29.96R
$$

NYZ026>034-041>043-087-212200-
NORTH


CITY           SKY/WX    TMP DP  RH WIND       PRES   REMARKS
WATERTOWN      CLOUDY    52  25  35 S12G20    29.75R
FORT DRUM      NOT AVBL
OGDENSBURG     FAIR      49  27  41 SW9       29.73R
MASSENA        PTCLDY    50  27  40 SW13      29.74R
SARANAC LAKE   CLEAR     45  23  42 SW15      29.75R
PLATTSBURGH    CLOUDY    49  25  39 S12G20    29.78R
$$

NYZ001>004-010>016-019>021-085-212200-
WEST


CITY           SKY/WX    TMP DP  RH WIND       PRES   REMARKS
NIAGARA FALLS  CLEAR     52  31  44 SW22G32   29.76R
BUFFALO        PTCLDY    52  33  48 W23G31    29.76R
DUNKIRK        CLEAR     53  28  38 SW15G26   29.79R
JAMESTOWN      CLEAR     50  25  37 SW16G25   29.81R
WELLSVILLE     CLEAR     54  24  31 S15G23    29.84R
ROCHESTER      PTCLDY    55  28  35 SW15      29.78R
PENN YAN       PTCLDY    56  23  27 S10       29.82R
$$

             KEY
       WCI = WIND CHILL INDEX
       VSB = VISIBILITY
       HX  = HEAT INDEX
$$



USA.gov is the U.S. government's official web portal to all federal, state and local government web resources and services.